Temperature
23 24 23 23 22 22 21 21 20 20 20 20 20 20 19 20 20 19 19 19 19 19 19 19 19 19 19 19 19 19 19 19 19 19 19 19 18 18 18 17 17 18 18
24 24 23 23 22 22 21 21 20 20 20 20 19 19 19 19 19 19 19 19 19 19 19 19 19 19 19 19 19 19 19 19 19 19 19 19 18 18 17 17 17 18 18
24 24 23 23 23 22 21 21 20 20 20 19 19 19 19 19 19 19 19 19 19 19 19 19 19 19 19 19 20 19 19 19 19 18 18 18 18 18 18 17 17 18 18
24 24 23 23 23 22 22 21 20 20 20 20 19 19 19 19 19 19 19 19 19 19 19 19 19 19 20 20 20 20 19 19 19 18 18 18 18 18 18 18 18 18 18
23 23 23 23 23 22 22 21 20 20 20 20 19 19 19 19 19 19 19 19 19 19 19 19 19 20 20 20 20 20 20 19 19 18 18 18 18 18 18 18 18 18 18
22 23 23 23 23 22 22 21 21 20 20 20 19 19 19 19 19 19 19 19 19 19 19 19 20 20 20 20 20 20 20 19 19 18 18 18 18 19 19 19 18 18 18
21 23 23 23 22 22 22 21 21 21 20 20 20 19 19 19 19 19 19 19 19 19 19 19 20 20 20 20 20 20 20 20 19 18 18 18 19 19 19 19 19 18 18
22 22 23 22 22 22 22 21 21 21 21 20 20 20 20 20 20 20 20 19 19 19 19 20 20 20 20 20 20 20 20 20 19 19 19 19 19 19 19 19 19 18 18
22 22 23 22 22 22 22 21 21 21 21 21 20 20 20 20 20 20 19 19 20 19 19 19 20 20 20 20 20 20 20 20 20 19 19 19 19 19 19 19 19 19 18
23 22 22 22 22 22 22 21 21 21 21 21 20 20 20 20 20 20 20 20 19 19 19 19 20 20 20 20 20 20 20 20 20 19 19 19 19 19 19 19 19 19 19
24 22 21 20 21 21 21 21 21 21 21 21 20 20 20 20 20 19 20 20 19 19 19 19 19 19 19 19 19 19 19 19 19 19 19 19 19 19 19 19 19 19 18
24 23 22 21 20 20 20 20 20 20 20 20 20 20 20 20 19 19 19 19 19 19 19 19 19 19 19 19 19 19 19 19 19 19 19 19 19 19 19 19 19 19 18
24 23 23 21 20 20 20 20 20 19 19 20 19 19 19 19 19 19 19 19 19 19 19 19 19 19 19 19 18 18 18 19 19 19 19 19 19 19 19 19 19 19 19
23 23 22 21 20 20 20 20 20 20 20 19 19 19 19 19 19 19 19 19 18 18 18 18 18 19 19 18 18 18 18 18 19 19 19 19 19 19 19 19 19 19 19
22 22 22 21 20 20 20 20 19 19 19 19 19 19 19 19 19 19 19 19 19 18 18 18 18 18 18 18 18 18 18 18 18 19 19 18 18 18 19 19 19 19 19
21 21 21 20 20 19 19 19 19 19 19 19 19 19 18 18 18 18 18 18 18 18 18 18 18 18 18 18 18 18 18 18 18 18 18 18 18 18 18 19 19 19 19
20 20 20 19 19 19 18 18 18 18 18 18 18 18 18 18 17 17 17 17 17 17 17 18 18 17 17 17 18 18 18 18 18 18 18 18 18 18 18 18 19 19 19
19 19 19 19 18 18 18 18 18 18 18 18 18 18 17 17 17 17 17 17 17 17 17 17 17 17 17 17 17 17 17 18 18 18 18 18 18 18 18 18 18 18 18
18 18 18 18 18 18 18 18 17 17 17 17 17 17 17 17 17 17 16 16 16 16 16 16 16 16 16 17 17 17 17 17 17 18 18 18 18 18 18 18 18 18 18
18 18 18 18 18 18 17 17 17 17 17 17 17 17 17 17 16 16 16 16 16 16 16 16 16 16 16 16 16 16 17 17 17 17 18 18 18 18 18 18 18 18 18
17 17 17 17 17 17 17 17 17 17 17 17 17 16 16 16 16 16 16 16 15 15 15 15 15 15 16 16 16 16 17 17 17 18 18 18 18 18 18 18 18 18 18
17 17 17 17 17 17 17 17 17 17 17 17 17 16 16 16 16 15 15 15 15 15 15 15 15 15 15 15 15 16 16 17 17 18 18 18 18 18 18 18 18 18 18
18 17 17 17 16 16 16 16 16 16 16 16 16 16 16 15 15 15 15 15 15 15 15 15 15 15 15 15 15 16 16 17 18 18 18 18 18 18 19 19 18 18 18
18 18 17 17 16 15 15 15 15 15 15 15 15 15 15 15 15 15 15 14 14 14 14 14 14 14 15 15 15 16 16 16 17 18 18 18 18 18 18 18 18 18 18
19 18 18 17 16 15 15 14 14 14 14 14 14 14 14 14 14 15 14 14 14 14 14 14 14 14 14 15 15 15 16 16 17 17 17 18 18 18 18 18 18 18 18
19 18 18 17 16 15 14 14 13 13 13 13 13 13 13 14 14 14 14 14 14 14 14 14 14 14 14 14 14 15 15 16 16 17 17 18 18 18 18 18 18 18 17
Wind_Speed
19 20 21 18 16 14 13 14 14 14 13 12 11 11 10 10 11 11 11 12 12 11 11 11 10 10 9 10 10 11 12 12 13 14 14 14 12 11 10 9 12 16 16
22 21 21 19 16 15 14 13 14 14 13 12 12 11 11 10 10 10 10 10 10 10 10 10 10 9 9 9 9 9 9 9 10 11 12 13 12 10 10 9 14 15 16
23 21 20 19 17 15 14 13 14 14 13 12 12 11 11 10 10 10 9 9 9 9 9 9 9 9 9 9 8 8 7 7 7 7 9 11 12 10 11 15 17 16 15
22 19 19 19 17 15 14 13 13 13 13 12 12 11 11 10 10 9 9 8 8 8 8 8 8 8 8 8 7 7 6 5 5 5 8 8 13 12 11 12 14 14 13
19 19 20 19 17 16 14 13 13 13 13 12 12 11 11 11 10 9 9 8 8 8 8 8 7 7 7 7 7 6 5 4 5 8 6 9 15 13 11 11 11 11 11
19 19 20 19 17 16 14 13 12 12 12 12 12 11 11 10 10 9 9 8 8 8 8 8 7 7 7 7 7 6 5 6 7 10 8 12 15 14 12 10 10 10 10
19 19 20 19 17 16 14 13 12 11 11 11 11 11 10 10 10 10 9 9 9 9 8 8 8 8 7 7 7 7 7 7 10 10 4 13 16 17 14 11 10 9 9
20 19 18 18 16 15 14 12 11 11 10 10 10 10 10 10 10 10 10 10 10 10 10 9 9 9 9 8 8 8 9 10 10 11 7 14 20 19 16 13 11 10 10
20 19 16 16 15 14 13 12 11 11 10 10 10 10 9 10 10 10 10 11 11 11 11 10 10 10 10 10 10 10 10 11 12 12 7 14 22 21 18 15 13 12 12
19 18 15 15 15 13 13 13 12 11 11 10 10 10 10 10 11 12 12 13 13 13 12 12 12 12 12 13 13 13 12 11 13 15 11 13 26 23 20 17 15 14 14
15 16 15 15 13 13 14 14 14 12 12 11 11 12 11 11 13 14 17 17 17 16 15 15 14 14 14 15 16 16 14 12 14 14 13 15 27 25 22 20 18 17 16
11 12 11 12 12 10 9 13 12 12 13 13 13 14 13 13 13 15 19 23 21 20 19 18 17 16 15 14 17 19 14 15 16 15 13 20 26 25 23 21 19 19 19
7 6 10 10 9 6 3 8 6 7 10 14 13 13 13 12 11 11 8 15 18 19 16 17 17 15 15 14 11 14 16 15 14 13 10 23 26 25 23 22 21 20 20
6 4 5 8 7 2 2 1 1 1 2 4 6 8 6 3 4 4 3 5 10 12 11 11 10 14 15 15 13 11 14 13 13 10 10 21 23 23 23 22 22 21 20
6 4 6 8 7 5 5 4 4 4 3 3 0 4 4 3 4 5 4 3 4 5 6 6 7 8 8 8 9 9 8 11 12 9 9 19 22 23 23 22 21 22 21
7 7 7 8 7 5 3 3 3 3 3 4 3 3 3 3 3 4 5 5 5 6 5 4 6 6 6 6 8 7 7 8 9 9 9 14 20 22 22 22 23 23 23
8 8 7 5 6 5 3 3 3 4 4 3 3 5 5 5 4 3 4 5 5 7 8 6 6 4 7 7 8 9 7 7 7 8 10 8 14 19 22 24 25 24 24
9 8 7 6 6 4 2 2 3 4 4 3 4 5 5 6 5 3 4 5 5 6 5 7 8 7 7 6 6 8 8 6 9 9 10 10 11 14 21 25 26 25 25
8 7 6 7 6 5 4 2 3 2 2 3 3 3 4 5 6 4 4 5 5 5 6 8 8 7 7 7 7 8 8 7 9 12 10 10 13 15 16 23 28 27 27
6 6 5 5 5 4 4 3 2 2 2 2 1 1 2 4 5 4 4 4 4 5 5 6 8 7 6 6 9 9 9 9 10 10 12 10 11 16 16 16 20 23 27
6 5 4 5 5 4 4 5 4 4 4 3 2 1 1 3 4 4 4 4 4 4 5 6 7 7 7 5 5 6 8 10 11 10 10 9 11 11 12 12 16 17 18
4 3 3 4 5 5 4 4 3 4 4 4 1 0 1 1 3 4 3 4 4 4 5 4 4 4 5 5 4 4 5 7 9 12 8 9 8 7 9 11 10 12 12
3 2 3 3 3 4 6 5 6 5 5 4 3 2 1 1 3 3 4 4 4 4 4 4 3 4 4 4 4 4 3 3 3 6 9 8 8 6 5 5 7 10 12
2 2 3 2 1 3 5 6 8 8 7 7 5 4 5 4 4 4 4 3 4 4 3 4 3 3 3 4 3 4 5 3 2 1 4 6 8 6 4 4 6 6 10
2 2 1 2 1 2 4 7 8 8 8 8 8 9 8 7 7 6 5 3 3 3 3 4 4 4 3 4 4 3 4 4 4 2 4 4 4 5 5 4 2 4 7
3 3 3 4 4 4 5 7 8 9 8 10 10 11 9 7 6 5 5 4 4 3 2 3 4 5 4 5 4 4 3 3 3 4 4 5 6 5 7 5 4 4 4
Wind_Direction
122 133 135 132 129 127 129 136 141 141 138 134 131 129 126 121 117 113 111 109 108 108 107 107 106 100 93 86 83 81 82 82 84 88 90 89 87 83 78 87 109 99 103
125 132 134 132 130 128 130 136 142 144 142 140 138 137 135 133 130 126 122 120 118 114 112 110 109 106 102 99 97 94 94 96 100 106 110 103 93 80 66 71 99 107 108
123 131 134 132 131 130 131 135 141 145 146 144 144 143 142 142 141 139 135 133 131 125 120 117 114 112 111 110 109 109 111 116 126 137 153 128 110 91 81 87 99 107 109
125 136 136 135 133 132 131 134 140 147 149 149 148 148 148 149 149 148 147 146 144 137 130 126 124 123 122 123 124 126 134 149 164 186 208 153 125 109 99 99 105 110 113
127 130 133 139 136 135 133 134 139 146 151 153 153 154 156 156 157 157 158 159 158 150 144 142 138 137 138 139 142 149 166 194 217 238 237 117 113 124 118 114 115 117 120
129 131 137 140 139 138 138 139 142 146 152 156 159 161 162 163 164 165 167 170 168 161 159 157 155 154 156 159 164 175 198 224 246 242 221 136 127 137 133 132 131 131 130
134 132 139 142 142 143 144 146 149 152 156 160 163 166 169 171 173 175 177 179 176 173 173 172 172 172 175 180 186 195 215 238 253 268 204 132 138 146 145 148 148 148 147
133 132 137 142 144 147 151 155 158 161 165 169 173 176 180 184 186 187 189 189 188 187 186 185 186 188 190 195 201 211 225 245 247 258 201 143 149 153 155 161 164 164 164
132 132 143 147 150 154 158 164 169 173 177 182 186 189 194 198 200 202 202 201 201 200 198 197 198 199 201 205 210 218 231 245 269 277 242 152 157 158 161 170 177 179 179
133 138 149 153 155 162 168 175 179 183 188 194 198 201 206 211 215 216 214 210 211 210 208 209 210 210 210 213 216 220 229 244 255 263 257 176 164 164 167 175 184 189 190
135 140 156 155 159 172 175 175 181 191 198 201 206 211 214 220 219 216 221 214 211 212 214 216 218 219 219 220 221 222 224 233 242 245 251 186 168 170 173 178 188 196 198
135 146 153 154 157 180 184 159 184 194 196 204 209 202 208 224 234 231 215 210 209 212 215 218 221 223 224 228 223 219 221 227 243 245 232 178 172 174 176 181 190 199 202
142 152 146 143 146 178 159 157 194 200 182 197 218 209 209 220 231 240 228 201 207 213 217 220 219 222 224 226 226 205 215 228 231 239 213 178 176 178 181 185 192 201 205
137 130 109 118 127 112 47 22 351 337 145 193 200 217 223 220 260 271 264 201 199 210 219 224 215 217 223 226 226 211 211 223 240 234 197 185 181 182 187 190 196 204 209
104 89 71 80 83 62 35 1 5 349 341 328 311 228 243 242 251 266 285 291 269 239 221 224 227 221 219 224 230 225 224 225 240 249 198 187 188 190 192 195 201 207 212
65 60 60 63 71 67 45 7 338 319 309 308 306 303 289 280 272 280 284 286 291 286 283 258 246 237 233 230 229 231 233 239 241 248 228 199 197 199 201 202 206 210 213
61 56 51 66 63 53 23 343 319 301 312 329 329 322 314 305 308 294 282 276 272 276 280 277 269 279 243 238 238 236 235 236 243 241 240 218 210 208 211 213 211 212 214
56 55 40 33 47 47 30 343 314 322 333 328 321 329 336 327 317 303 285 276 267 262 261 267 264 258 247 238 238 243 237 231 237 238 234 224 222 223 217 217 216 215 215
59 56 54 40 32 21 4 335 309 300 294 295 310 338 349 329 320 307 288 283 283 266 256 258 255 247 249 243 240 240 239 229 233 232 223 223 226 227 218 214 215 215 216
70 63 56 55 40 8 2 339 337 332 329 301 316 9 345 325 319 309 287 285 288 277 265 255 256 252 251 245 250 248 236 228 225 223 221 220 224 226 220 213 209 216 217
77 72 61 55 43 13 23 355 347 343 328 308 278 80 356 320 319 295 298 305 291 285 276 265 260 252 245 237 246 256 252 237 227 222 216 219 219 217 215 206 197 201 211
100 103 102 66 39 16 17 325 298 311 297 278 296 342 243 315 318 306 317 296 294 295 290 288 271 259 250 220 216 236 249 238 227 218 205 211 224 218 206 204 191 189 191
126 110 77 63 30 15 346 321 332 320 302 311 333 307 264 294 283 289 292 288 291 286 287 283 270 262 263 255 227 230 238 246 226 217 206 204 201 215 209 190 180 180 191
167 173 143 135 39 353 332 332 331 313 309 315 316 320 325 301 270 253 256 270 286 288 286 287 272 261 260 267 265 250 254 280 257 239 214 198 185 193 210 213 192 173 183
298 304 183 146 97 355 340 320 315 311 318 318 320 312 303 287 262 240 232 228 253 275 291 294 291 274 265 257 259 269 266 270 255 228 222 199 184 183 190 201 199 157 166
304 330 3 45 31 7 341 325 317 314 312 307 300 293 289 280 270 250 228 210 220 244 268 280 285 279 272 262 251 262 265 256 262 251 226 204 193 194 183 177 174 160 147
Height
1495 1497 1501 1505 1508 1511 1514 1516 1519 1521 1524 1526 1528 1529 1531 1533 1534 1536 1537 1539 1540 1541 1543 1544 1545 1546 1547 1548 1549 1550 1551 1552 1553 1554 1555 1555 1556 1557 1557 1558 1559 1560 1561
1494 1498 1502 1506 1509 1511 1514 1517 1520 1522 1525 1527 1529 1530 1532 1534 1535 1537 1538 1540 1541 1542 1544 1545 1546 1547 1549 1550 1551 1552 1553 1554 1555 1556 1557 1557 1558 1559 1559 1560 1561 1562 1564
1495 1499 1503 1506 1509 1512 1515 1518 1520 1523 1525 1528 1530 1531 1533 1535 1536 1538 1540 1541 1542 1544 1545 1546 1547 1548 1550 1551 1552 1553 1554 1556 1556 1557 1558 1560 1561 1561 1562 1563 1564 1565 1566
1496 1500 1503 1507 1510 1513 1516 1518 1521 1523 1526 1528 1530 1532 1534 1536 1537 1539 1540 1542 1543 1545 1546 1547 1548 1549 1551 1552 1553 1555 1556 1557 1558 1559 1560 1562 1563 1563 1564 1564 1565 1566 1568
1497 1500 1504 1507 1510 1513 1516 1519 1521 1524 1526 1528 1531 1533 1534 1536 1538 1539 1541 1542 1544 1545 1546 1548 1549 1550 1552 1553 1554 1556 1557 1559 1560 1560 1563 1564 1564 1565 1565 1566 1567 1568 1569
1499 1501 1505 1508 1511 1514 1516 1519 1522 1524 1526 1529 1531 1533 1535 1536 1538 1539 1541 1543 1544 1545 1547 1548 1549 1551 1552 1553 1555 1557 1558 1559 1560 1561 1564 1565 1565 1566 1567 1567 1568 1569 1570
1501 1502 1506 1509 1512 1514 1517 1519 1522 1524 1526 1528 1530 1532 1534 1536 1538 1539 1541 1542 1544 1545 1547 1548 1549 1551 1552 1554 1555 1557 1558 1559 1560 1561 1564 1565 1565 1566 1567 1568 1569 1570 1571
1503 1504 1507 1510 1513 1515 1517 1520 1522 1524 1526 1528 1530 1532 1534 1536 1537 1539 1540 1542 1543 1545 1546 1547 1549 1550 1552 1553 1554 1556 1557 1559 1560 1562 1564 1564 1565 1566 1567 1568 1569 1570 1571
1505 1505 1508 1511 1513 1516 1518 1520 1523 1525 1526 1528 1530 1532 1533 1535 1536 1538 1539 1541 1542 1544 1545 1546 1547 1549 1550 1551 1553 1554 1556 1557 1558 1560 1562 1562 1563 1565 1566 1567 1568 1569 1571
1507 1507 1509 1511 1514 1516 1519 1521 1523 1525 1526 1528 1530 1531 1533 1534 1535 1537 1538 1540 1541 1542 1543 1544 1546 1547 1548 1549 1551 1552 1554 1555 1556 1558 1559 1560 1561 1563 1565 1566 1567 1569 1570
1509 1509 1511 1513 1514 1517 1519 1521 1523 1525 1526 1527 1529 1530 1531 1533 1534 1535 1537 1538 1539 1540 1541 1542 1543 1544 1545 1546 1548 1549 1550 1552 1553 1555 1556 1558 1559 1560 1562 1564 1565 1567 1568
1510 1512 1513 1515 1516 1519 1522 1522 1523 1524 1525 1527 1528 1528 1530 1531 1533 1535 1535 1536 1536 1537 1538 1538 1539 1540 1541 1542 1544 1545 1546 1548 1549 1551 1553 1554 1555 1557 1559 1561 1562 1564 1566
1511 1513 1515 1516 1517 1520 1523 1523 1524 1525 1525 1526 1527 1528 1528 1530 1531 1532 1534 1533 1533 1533 1533 1534 1534 1535 1537 1538 1540 1541 1542 1544 1545 1547 1548 1548 1551 1553 1555 1557 1559 1561 1562
1511 1513 1515 1515 1517 1519 1522 1523 1524 1525 1526 1526 1526 1527 1528 1528 1529 1530 1531 1531 1530 1529 1529 1530 1530 1530 1532 1534 1536 1537 1538 1540 1542 1543 1543 1544 1546 1549 1551 1553 1555 1556 1559
1510 1513 1514 1515 1516 1518 1520 1521 1522 1523 1525 1525 1525 1525 1525 1526 1525 1526 1526 1526 1527 1526 1526 1525 1526 1526 1527 1529 1531 1533 1534 1535 1537 1539 1538 1539 1542 1544 1547 1549 1550 1552 1554
1509 1512 1513 1515 1516 1517 1518 1520 1520 1522 1523 1523 1523 1523 1522 1522 1522 1521 1521 1521 1521 1521 1522 1522 1521 1521 1523 1524 1526 1527 1528 1530 1531 1533 1534 1535 1536 1539 1542 1543 1545 1547 1549
1509 1511 1513 1514 1515 1516 1517 1518 1519 1520 1520 1520 1520 1520 1519 1518 1517 1516 1516 1516 1516 1516 1516 1516 1516 1516 1517 1519 1520 1522 1523 1524 1525 1527 1528 1529 1531 1534 1536 1538 1540 1542 1544
1509 1511 1512 1514 1514 1515 1515 1516 1516 1517 1517 1517 1517 1516 1515 1514 1513 1512 1511 1511 1511 1510 1510 1510 1510 1510 1511 1512 1513 1515 1517 1518 1519 1521 1523 1524 1526 1528 1530 1531 1534 1537 1539
1510 1511 1512 1512 1513 1513 1514 1514 1514 1514 1514 1513 1513 1512 1511 1511 1509 1508 1507 1506 1505 1504 1503 1503 1503 1504 1505 1505 1507 1508 1510 1511 1513 1515 1517 1518 1520 1523 1525 1526 1528 1531 1533
1510 1511 1512 1512 1513 1513 1513 1513 1513 1513 1512 1511 1511 1509 1508 1507 1506 1504 1503 1501 1500 1498 1497 1497 1498 1498 1498 1499 1500 1502 1504 1505 1507 1509 1510 1512 1514 1517 1519 1520 1523 1525 1528
1511 1512 1512 1512 1512 1512 1512 1512 1512 1511 1511 1510 1509 1507 1505 1504 1502 1501 1499 1497 1496 1494 1493 1492 1491 1492 1492 1494 1496 1496 1498 1499 1500 1502 1504 1506 1509 1511 1514 1515 1517 1519 1522
1513 1513 1513 1512 1512 1512 1512 1511 1511 1510 1509 1508 1507 1505 1503 1500 1499 1498 1496 1494 1492 1490 1489 1488 1487 1487 1487 1489 1491 1493 1492 1493 1493 1496 1499 1501 1504 1506 1508 1511 1514 1516 1518
1514 1513 1513 1512 1511 1511 1510 1510 1509 1508 1507 1506 1504 1502 1500 1498 1496 1494 1492 1490 1489 1487 1485 1485 1484 1483 1484 1486 1488 1489 1489 1488 1488 1491 1493 1496 1499 1502 1505 1507 1509 1511 1514
1513 1513 1512 1511 1510 1509 1508 1507 1506 1505 1503 1502 1500 1498 1496 1494 1492 1490 1489 1487 1485 1484 1483 1482 1481 1481 1481 1482 1483 1485 1486 1487 1488 1487 1490 1492 1495 1498 1500 1503 1505 1507 1509
1512 1512 1511 1509 1507 1506 1505 1504 1503 1501 1499 1497 1495 1493 1491 1489 1488 1486 1484 1483 1481 1480 1479 1479 1478 1478 1478 1479 1480 1481 1482 1483 1484 1486 1488 1490 1492 1494 1496 1499 1501 1503 1505
1510 1509 1509 1507 1505 1503 1502 1501 1499 1497 1494 1492 1490 1488 1486 1485 1484 1482 1481 1479 1477 1476 1476 1475 1475 1475 1474 1474 1475 1477 1479 1480 1481 1484 1485 1487 1489 1491 1493 1495 1497 1500 1502